Back to catalog

STARLINK-3594

AliveCommunicationsVLEO
NORAD 51895·PAYLOAD·🇺🇸 United States

Launched Mar 3, 2022 from Cape Canaveral Space Force Station

Loading…

Next Passes (next 24 hours)

TLE

FreshSource: CelesTrak SupGP

Epoch: Sep 14, 2026, 21:26 UTC

1 51895C 22022AV  26257.89354167  .00020210  00000+0  59707-3 0  2573
2 51895  53.1568 214.2659 0001277  96.7520 212.6378 15.34382896    12

Track STARLINK-3594 in real time with AllMySat

Download on the App Store